sat.trackr.live / text

‹ back to catalog

STARLINK-1500

NORAD 45744 · 2020-038Q

PAYLOAD ACTIVE UNKNOWN

§ Identity

Operator
Country
US
Launch date
2020-06-13
Launch site
AFETR
Launch vehicle
Mass (kg)
RCS (m²)

Purposes: comms

External: N2YO · Heavens-Above · Gunter

§ Orbital elements

Epoch: 2026-09-19T23:24:07.960032Z

Period
93.26 min
Inclination
53.0347°
Eccentricity
0.0001882
Mean motion
15.44097304 rev/d
Perigee alt
432.7 km
Apogee alt
435.3 km
Semi-major
6,812.2 km
B*
4.5938e-4
RAAN
354.7496°
Arg perigee
121.2071°
Mean anomaly
238.9119°
Rev number
34,674

§ Raw data

STARLINK-15001 45744U 20038Q   26262.97509213  .00020977  00000+0  45938-3 0  99972 45744  53.0347 354.7496 0001882 121.2071 238.9119 15.44097304346743

JSON: /api/v1/satellites/45744 · /tle

For live sub-satellite position, see the globe view (requires WebGL).

§ Visibility from observer

Set your observer location to see the next 7 days of passes ≥ 10°. The values pass through the URL so the page stays shareable.

No JS? Fill the form by hand. The geolocation button needs JavaScript.